DW5164 Weather Reports


time (UTC)temp
C
wind
direction
speed
KPH
gust
KPH
rain 1hr
cm
rain 24hr
cm
rain mn
cm
humidity
%
barometer
mb
20260906191941 27 95 4.8 8.0 0.00 0.00 0.00 75 1020.4
20260906191441 27 78 3.2 8.0 0.00 0.00 0.00 74 1020.3
20260906190941 27 84 3.2 8.0 0.00 0.00 0.00 74 1020.2
20260906190442 27 76 3.2 8.0 0.00 0.00 0.00 74 1020.2
20260906185941 27 81 4.8 8.0 0.00 0.00 0.00 73 1020.1
20260906185441 27 84 4.8 8.0 0.00 0.00 0.00 73 1020.1
20260906184941 27 82 3.2 8.0 0.00 0.00 0.00 72 1020.0
20260906184441 27 82 3.2 8.0 0.00 0.00 0.00 72 1019.9
20260906183941 27 80 4.8 8.0 0.00 0.00 0.00 71 1019.9
20260906183441 27 68 4.8 8.0 0.00 0.00 0.00 71 1019.8
20260906182941 27 71 4.8 8.0 0.00 0.00 0.00 71 1019.8
20260906181941 27 74 3.2 4.8 0.00 0.00 0.00 70 1019.7
20260906181441 27 74 3.2 4.8 0.00 0.00 0.00 70 1019.7
20260906180942 28 73 3.2 4.8 0.00 0.00 0.00 70 1019.6
20260906180441 28 73 3.2 4.8 0.00 0.00 0.00 70 1019.6
20260906175941 28 73 3.2 4.8 0.00 0.00 0.00 70 1019.5
20260906175441 28 67 3.2 4.8 0.00 0.00 0.00 69 1019.5
20260906174941 28 73 3.2 4.8 0.00 0.00 0.00 68 1019.4
20260906174441 28 63 3.2 4.8 0.00 0.00 0.00 68 1019.3
20260906173942 28 76 3.2 4.8 0.00 0.00 0.00 66 1019.3
20260906173441 29 76 1.6 4.8 0.00 0.00 0.00 66 1019.3
20260906171941 29 74 3.2 8.0 0.00 0.00 0.00 66 1019.3
20260906171442 30 80 1.6 4.8 0.00 0.00 0.00 65 1019.2
20260906170943 30 75 3.2 4.8 0.00 0.00 0.00 64 1019.2
20260906170441 30 73 1.6 4.8 0.00 0.00 0.00 64 1019.2
20260906165441 30 87 1.6 8.0 0.00 0.00 0.00 64 1019.2
20260906164940 30 77 3.2 8.0 0.00 0.00 0.00 64 1019.2
20260906164441 30 93 3.2 8.0 0.00 0.00 0.00 63 1019.2
20260906163941 31 51 3.2 4.8 0.00 0.00 0.00 61 1019.1
20260906163441 31 55 3.2 8.0 0.00 0.00 0.00 61 1019.1
20260906162941 31 74 4.8 8.0 0.00 0.00 0.00 60 1019.2
20260906162441 31 80 3.2 8.0 0.00 0.00 0.00 62 1019.2
20260906161940 31 86 3.2 8.0 0.00 0.00 0.00 61 1019.1
20260906160942 31 100 4.8 8.0 0.00 0.00 0.00 62 1019.1
20260906160440 31 76 4.8 8.0 0.00 0.00 0.00 60 1019.2
20260906155940 31 93 4.8 9.7 0.00 0.00 0.00 60 1019.1
20260906155441 31 109 8.0 11.3 0.00 0.00 0.00 59 1019.1
20260906154940 31 110 8.0 11.3 0.00 0.00 0.00 58 1019.1
20260906154440 31 97 4.8 8.0 0.00 0.00 0.00 59 1019.1
20260906153942 31 77 4.8 8.0 0.00 0.00 0.00 57 1019.2
20260906153440 31 83 6.4 9.7 0.00 0.00 0.00 59 1019.2
20260906152941 31 111 6.4 11.3 0.00 0.00 0.00 58 1019.2
20260906152440 31 118 6.4 14.5 0.00 0.00 0.00 59 1019.2
20260906151940 32 85 4.8 11.3 0.00 0.00 0.00 57 1019.2
20260906151440 32 72 9.7 14.5 0.00 0.00 0.00 57 1019.3
20260906150940 32 97 8.0 12.9 0.00 0.00 0.00 57 1019.3
20260906145941 32 97 4.8 9.7 0.00 0.00 0.00 57 1019.3
20260906144940 32 82 8.0 12.9 0.00 0.00 0.00 58 1019.4
20260906144440 31 101 9.7 14.5 0.00 0.00 0.00 57 1019.4
20260906143942 31 93 9.7 14.5 0.00 0.00 0.00 58 1019.4
20260906142940 31 100 6.4 14.5 0.00 0.00 0.00 58 1019.5
20260906142442 32 101 4.8 14.5 0.00 0.00 0.00 58 1019.5
20260906141940 32 74 8.0 12.9 0.00 0.00 0.00 57 1019.5
20260906141440 32 103 3.2 11.3 0.00 0.00 0.00 57 1019.5
20260906140940 32 110 8.0 14.5 0.00 0.00 0.00 57 1019.6
20260906140441 32 79 8.0 14.5 0.00 0.00 0.00 57 1019.6
20260906135940 32 118 9.7 12.9 0.00 0.00 0.00 56 1019.6
20260906135441 32 89 6.4 11.3 0.00 0.00 0.00 57 1019.6
20260906134940 31 91 8.0 12.9 0.00 0.00 0.00 57 1019.6
20260906134440 31 125 8.0 12.9 0.00 0.00 0.00 57 1019.6
20260906133940 31 104 8.0 12.9 0.00 0.00 0.00 57 1019.7
20260906133440 31 117 9.7 16.1 0.00 0.00 0.00 58 1019.7
20260906132940 31 126 11.3 19.3 0.00 0.00 0.00 56 1019.8
20260906131940 31 79 9.7 19.3 0.00 0.00 0.00 57 1019.8
20260906131440 31 107 12.9 20.9 0.00 0.00 0.00 57 1019.8
20260906130941 31 64 9.7 19.3 0.00 0.00 0.00 58 1019.9
20260906125940 31 74 9.7 19.3 0.00 0.00 0.00 58 1020.0
20260906125441 31 75 4.8 11.3 0.00 0.00 0.00 58 1020.0
20260906124940 31 116 8.0 19.3 0.00 0.00 0.00 57 1020.1
20260906124440 31 85 9.7 19.3 0.00 0.00 0.00 56 1020.1
20260906123941 31 108 8.0 16.1 0.00 0.00 0.00 57 1020.1
20260906123440 31 114 9.7 19.3 0.00 0.00 0.00 60 1020.1
20260906122440 31 87 11.3 16.1 0.00 0.00 0.00 56 1020.2
20260906121940 31 91 9.7 16.1 0.00 0.00 0.00 59 1020.2
20260906121440 31 80 11.3 19.3 0.00 0.00 0.00 59 1020.2
20260906120939 31 130 11.3 19.3 0.00 0.00 0.00 59 1020.2
20260906120440 31 115 8.0 16.1 0.00 0.00 0.00 60 1020.3
20260906115940 31 92 12.9 19.3 0.00 0.00 0.00 59 1020.2
20260906115440 31 98 11.3 16.1 0.00 0.00 0.00 59 1020.3
20260906114941 31 80 6.4 16.1 0.00 0.00 0.00 60 1020.3
20260906114440 31 142 8.0 12.9 0.00 0.00 0.00 59 1020.3
20260906113440 30 138 11.3 16.1 0.00 0.00 0.00 59 1020.4
20260906112439 30 103 9.7 20.9 0.00 0.00 0.00 59 1020.4
20260906111940 30 101 9.7 20.9 0.00 0.00 0.00 59 1020.3
20260906111441 30 71 9.7 19.3 0.00 0.00 0.00 61 1020.4
20260906110941 30 100 4.8 16.1 0.00 0.00 0.00 59 1020.4
20260906105940 30 84 11.3 22.5 0.00 0.00 0.00 61 1020.5
20260906105439 30 60 11.3 20.9 0.00 0.00 0.00 62 1020.5
20260906104940 30 100 14.5 20.9 0.00 0.00 0.00 62 1020.5
20260906104439 30 100 14.5 20.9 0.00 0.00 0.00 61 1020.5
20260906103940 30 87 11.3 22.5 0.00 0.00 0.00 61 1020.5
20260906103440 30 112 16.1 22.5 0.00 0.00 0.00 61 1020.5
20260906102940 29 116 9.7 16.1 0.00 0.00 0.00 61 1020.6
20260906101939 29 82 14.5 20.9 0.00 0.00 0.00 62 1020.6
20260906101440 30 131 12.9 19.3 0.00 0.00 0.00 63 1020.7
20260906100939 29 103 12.9 20.9 0.00 0.00 0.00 63 1020.8
20260906100439 29 108 11.3 24.1 0.00 0.00 0.00 62 1020.8
20260906095939 29 105 11.3 19.3 0.00 0.00 0.00 64 1020.8
20260906094940 29 90 14.5 20.9 0.00 0.00 0.00 61 1020.8
20260906094440 29 78 16.1 25.7 0.00 0.00 0.00 61 1020.9
20260906093940 29 89 12.9 22.5 0.00 0.00 0.00 58 1020.9
20260906092439 29 71 19.3 29.0 0.00 0.00 0.00 55 1020.9
20260906091940 29 73 16.1 27.4 0.00 0.00 0.00 57 1021.0
20260906090940 28 75 11.3 29.0 0.00 0.00 0.00 57 1021.0
20260906090439 28 105 17.7 35.4 0.00 0.00 0.00 56 1021.0
20260906085940 28 77 20.9 29.0 0.00 0.00 0.00 55 1021.0
20260906085439 28 79 9.7 16.1 0.00 0.00 0.00 60 1021.0
20260906084940 28 86 14.5 20.9 0.00 0.00 0.00 60 1021.0
20260906084440 28 62 14.5 20.9 0.00 0.00 0.00 59 1021.0
20260906083940 28 97 14.5 24.1 0.00 0.00 0.00 60 1021.0
20260906083439 28 99 17.7 27.4 0.00 0.00 0.00 61 1020.9
20260906082439 28 93 11.3 20.9 0.00 0.00 0.00 62 1020.8
20260906081939 28 88 11.3 22.5 0.00 0.00 0.00 62 1020.8
20260906081440 27 91 16.1 25.7 0.00 0.00 0.00 62 1020.7
20260906080939 27 99 9.7 16.1 0.00 0.00 0.00 65 1020.7
20260906080439 27 91 9.7 16.1 0.00 0.00 0.00 65 1020.6
20260906075940 27 113 12.9 20.9 0.00 0.00 0.00 66 1020.6
20260906075440 27 98 9.7 20.9 0.00 0.00 0.00 67 1020.7
20260906074939 26 103 14.5 20.9 0.00 0.00 0.00 67 1020.7
20260906073940 26 116 9.7 14.5 0.00 0.00 0.00 72 1020.7
20260906073440 26 115 6.4 11.3 0.00 0.00 0.00 72 1020.7
20260906072939 26 115 9.7 14.5 0.00 0.00 0.00 72 1020.6
20260906072439 26 115 6.4 11.3 0.00 0.00 0.00 72 1020.6
20260906071939 26 98 6.4 11.3 0.00 0.00 0.00 74 1020.6
20260906070940 25 106 4.8 12.9 0.00 0.00 0.00 74 1020.5
20260906070440 25 134 3.2 4.8 0.00 0.00 0.00 75 1020.5
20260906065939 25 91 4.8 8.0 0.00 0.00 0.00 75 1020.5
20260906065438 25 96 6.4 11.3 0.00 0.00 0.00 75 1020.4
20260906064941 25 62 3.2 8.0 0.00 0.00 0.00 78 1020.3
20260906064439 24 100 4.8 8.0 0.00 0.00 0.00 77 1020.3
20260906063940 24 109 6.4 11.3 0.00 0.00 0.00 77 1020.2
20260906063439 24 136 4.8 11.3 0.00 0.00 0.00 77 1020.2
20260906062438 24 102 6.4 12.9 0.00 0.00 0.00 79 1020.1
20260906061939 23 109 4.8 8.0 0.00 0.00 0.00 80 1020.1
20260906061439 23 110 3.2 8.0 0.00 0.00 0.00 80 1020.0
20260906060939 23 101 3.2 8.0 0.00 0.00 0.00 80 1020.0
20260906060439 23 96 1.6 4.8 0.00 0.00 0.00 80 1019.9
20260906055940 23 111 0.0 3.2 0.00 0.00 0.00 81 1019.8
20260906055440 23 123 0.0 1.6 0.00 0.00 0.00 81 1019.8
20260906054939 22 121 3.2 8.0 0.00 0.00 0.00 80 1019.8
20260906054439 22 112 4.8 8.0 0.00 0.00 0.00 81 1019.7
20260906053939 22 104 3.2 8.0 0.00 0.00 0.00 81 1019.6
20260906053439 22 85 3.2 4.8 0.00 0.00 0.00 83 1019.6
20260906052938 22 84 1.6 4.8 0.00 0.00 0.00 83 1019.5
20260906052439 22 84 3.2 4.8 0.00 0.00 0.00 84 1019.5
20260906051440 21 86 3.2 8.0 0.00 0.00 0.00 86 1019.3
20260906050941 22 89 3.2 4.8 0.00 0.00 0.00 86 1019.2
20260906050439 22 101 3.2 4.8 0.00 0.00 0.00 86 1019.3
20260906045939 22 108 1.6 3.2 0.00 0.00 0.00 87 1019.2
20260906045439 22 111 1.6 4.8 0.00 0.00 0.00 87 1019.1
20260906044439 22 72 4.8 4.8 0.00 0.00 0.00 87 1019.0
20260906043939 22 81 3.2 4.8 0.00 0.00 0.00 88 1018.9
20260906043438 22 71 3.2 4.8 0.00 0.00 0.00 88 1019.0
20260906042939 22 79 3.2 4.8 0.00 0.00 0.00 88 1018.9
20260906042440 22 86 0.0 0.0 0.00 0.00 0.00 88 1018.9
20260906041938 22 86 0.0 0.0 0.00 0.00 0.00 87 1018.9
20260906041439 22 86 0.0 0.0 0.00 0.00 0.00 87 1018.9
20260906040940 22 86 0.0 1.6 0.00 0.00 0.00 87 1018.8
20260906040438 22 86 3.2 4.8 0.00 0.00 0.00 87 1018.7
20260906035439 22 78 4.8 9.7 0.00 0.00 0.00 87 1018.6
20260906034439 22 74 4.8 9.7 0.00 0.00 0.00 87 1018.5
20260906033938 22 98 3.2 8.0 0.00 0.00 0.00 87 1018.5
20260906033438 22 85 4.8 9.7 0.00 0.00 0.00 87 1018.4
20260906032939 23 88 4.8 9.7 0.00 0.00 0.00 87 1018.4
20260906031939 23 93 3.2 8.0 0.00 0.00 0.00 86 1018.3
20260906031438 23 84 3.2 8.0 0.00 0.00 0.00 86 1018.3
20260906030940 23 79 6.4 11.3 0.00 0.00 0.00 86 1018.3
20260906030439 23 90 4.8 9.7 0.00 0.00 0.00 86 1018.3
20260906025439 23 67 8.0 12.9 0.00 0.00 0.00 85 1018.3
20260906024439 23 62 9.7 14.5 0.00 0.00 0.00 85 1018.3
20260906023438 23 65 8.0 14.5 0.00 0.00 0.00 84 1018.3
20260906022438 23 77 11.3 14.5 0.00 0.00 0.00 84 1018.3
20260906021938 23 76 9.7 14.5 0.00 0.00 0.00 83 1018.2
20260906021438 24 81 11.3 16.1 0.00 0.00 0.00 83 1018.1
20260906020938 24 69 9.7 20.9 0.00 0.00 0.00 83 1018.1
20260906020438 24 70 11.3 22.5 0.00 0.00 0.00 83 1018.1
20260906014939 24 74 11.3 19.3 0.00 0.00 0.00 83 1018.1
20260906014438 24 71 11.3 19.3 0.00 0.00 0.00 84 1018.0
20260906013938 24 69 12.9 19.3 0.00 0.00 0.00 85 1018.0
20260906012940 23 68 11.3 16.1 0.00 0.00 0.00 87 1018.0
20260906012439 23 60 9.7 12.9 0.00 0.00 0.00 88 1017.9
20260906011938 23 61 6.4 12.9 0.00 0.00 0.00 88 1017.9
20260906010938 23 66 8.0 11.3 0.00 0.00 0.00 88 1017.9
20260906010438 23 65 4.8 8.0 0.00 0.00 0.00 88 1017.8
20260906005939 23 63 4.8 9.7 0.00 0.00 0.00 88 1017.8
20260906004938 23 57 6.4 11.3 0.00 0.00 0.00 88 1017.7
20260906004438 23 61 4.8 4.8 0.00 0.00 0.00 88 1017.7
20260906003937 23 59 4.8 8.0 0.00 0.00 0.00 88 1017.7
20260906003438 23 61 4.8 8.0 0.00 0.00 0.00 88 1017.7
20260906002938 23 73 4.8 11.3 0.00 0.00 0.00 88 1017.7
20260906002439 23 73 4.8 11.3 0.00 0.00 0.00 88 1017.7
20260906001438 23 64 6.4 11.3 0.00 0.00 0.00 88 1017.7
20260906000938 23 67 6.4 11.3 0.00 0.00 0.00 88 1017.7
20260906000440 23 64 6.4 12.9 0.00 0.00 0.00 88 1017.7
20260905235937 23 65 4.8 11.3 0.00 0.00 0.00 88 1017.7
20260905235439 23 68 4.8 8.0 0.00 0.00 0.00 88 1017.7
20260905234939 23 67 3.2 8.0 0.00 0.00 0.00 88 1017.7
20260905233938 23 65 8.0 11.3 0.00 0.00 0.00 88 1017.7
20260905233438 23 64 8.0 11.3 0.00 0.00 0.00 88 1017.7
20260905232937 23 64 4.8 11.3 0.00 0.00 0.00 88 1017.7
20260905232437 23 73 3.2 4.8 0.00 0.00 0.00 87 1017.7
20260905231938 23 78 3.2 4.8 0.00 0.00 0.00 87 1017.6
20260905231438 23 80 4.8 9.7 0.00 0.00 0.00 87 1017.6
20260905230938 23 61 6.4 12.9 0.00 0.00 0.00 87 1017.6
20260905230438 23 67 8.0 12.9 0.00 0.00 0.00 88 1017.5
20260905225937 23 66 8.0 14.5 0.00 0.00 0.00 88 1017.5
20260905225438 23 64 8.0 12.9 0.00 0.00 0.00 88 1017.4
20260905224937 23 60 6.4 11.3 0.00 0.00 0.00 88 1017.4
20260905224437 23 67 4.8 9.7 0.00 0.00 0.00 88 1017.5
20260905223937 23 65 4.8 8.0 0.00 0.00 0.00 88 1017.4
20260905222938 23 63 6.4 11.3 0.00 0.00 0.00 88 1017.3
20260905222437 23 68 4.8 12.9 0.00 0.00 0.00 87 1017.2
20260905221938 24 66 6.4 12.9 0.00 0.00 0.00 86 1017.2
20260905221437 24 64 8.0 12.9 0.00 0.00 0.00 86 1017.1
20260905220937 24 65 6.4 11.3 0.00 0.00 0.00 85 1017.1
20260905220438 24 60 8.0 11.3 0.00 0.00 0.00 84 1017.1
20260905215938 24 64 4.8 11.3 0.00 0.00 0.00 84 1017.0
20260905215437 24 60 8.0 12.9 0.00 0.00 0.00 83 1017.0
20260905214937 24 66 4.8 11.3 0.00 0.00 0.00 82 1016.9
20260905214438 24 64 8.0 11.3 0.00 0.00 0.00 81 1016.9
20260905213937 25 67 6.4 11.3 0.00 0.00 0.00 80 1016.8
20260905213438 25 70 4.8 8.0 0.00 0.00 0.00 80 1016.8
20260905212937 25 67 4.8 8.0 0.00 0.00 0.00 79 1016.7
20260905212438 25 65 4.8 11.3 0.00 0.00 0.00 78 1016.7
20260905211937 25 65 8.0 12.9 0.00 0.00 0.00 77 1016.6
20260905211439 25 74 9.7 12.9 0.00 0.00 0.00 76 1016.5
20260905210938 25 66 8.0 11.3 0.00 0.00 0.00 75 1016.5
20260905205444 25 63 8.0 12.9 0.00 0.00 0.00 74 1016.2
20260905203953 25 66 9.7 16.1 0.00 0.00 0.00 77 1016.2
20260905202944 25 93 4.8 11.3 0.00 0.00 0.00 76 1015.9
20260905202437 25 87 4.8 11.3 0.00 0.00 0.00 76 1015.9
20260905201937 25 83 4.8 8.0 0.00 0.00 0.00 75 1015.9
20260905200940 25 80 4.8 9.7 0.00 0.00 0.00 75 1015.8
20260905200437 25 83 3.2 8.0 0.00 0.00 0.00 75 1015.7
20260905195937 25 82 4.8 8.0 0.00 0.00 0.00 75 1015.7
20260905195437 26 82 3.2 4.8 0.00 0.00 0.00 74 1015.7
20260905194437 26 81 4.8 8.0 0.00 0.00 0.00 74 1015.6
20260905193937 26 82 4.8 8.0 0.00 0.00 0.00 74 1015.5
20260905193437 26 79 4.8 8.0 0.00 0.00 0.00 75 1015.5
20260905192937 26 74 4.8 4.8 0.00 0.00 0.00 76 1015.4
20260905192437 26 74 3.2 4.8 0.00 0.00 0.00 75 1015.3